Location: T. Spence Memorial Observatory
(32.7356°N, 82.2098°W)
Time: 09:00:00
(UTC-04:00)

Daily predictions for brighter satellites

Satellite Brightness Start Highest point End
(mag) Time Altitude Azimuth Time Altitude Azimuth Time Altitude Azimuth
Helios 1B rocket 3.4 20:50:38 10° NE 20:54:12 28° E 20:57:46 10° SSE
USA 186 2.5 20:52:31 10° SE 20:55:29 35° ENE 20:58:24 10° N
Cosmos 2369 Rocket 3.5 20:56:36 10° NW 21:01:52 40° WSW 21:07:07 10° S
Cosmos 2315 Rocket 4.2 20:56:36 10° S 21:02:51 81° W 21:09:12 10° N
Cosmos 1544 Rocket 3.5 21:01:06 10° N 21:05:26 77° E 21:09:45 10° S
Cosmos 1943 Rocket 2.4 20:59:57 10° NNW 21:05:32 76° WSW 21:11:03 10° SSE
Aureole 1 Rocket 3.0 21:03:31 10° S 21:06:47 34° ESE 21:09:37 10° NE
Resurs 1-3 3.7 21:07:40 10° S 21:12:03 84° WSW 21:16:27 10° NNW
Cosmos 405 Rocket 2.7 21:09:42 10° S 21:13:21 56° E 21:17:06 10° NNE
DEBRIS 4.0 21:13:51 10° WSW 21:16:31 50° NNW 21:23:18 10° NE
Meteor 1-19 Rocket 4.3 21:11:57 10° S 21:17:41 64° E 21:23:22 10° NNE
Cosmos 1500 3.6 21:15:25 10° NNW 21:19:08 62° W 21:22:49 10° S
Cosmos 923 Rocket 4.2 21:14:10 10° SSW 21:19:29 79° WNW 21:24:48 10° NNE
Cosmos 1441 Rocket 3.8 21:18:50 10° SSE 21:22:14 34° E 21:25:39 10° NNE
Tiangong 2 3.4 21:20:00 10° WNW 21:22:41 24° NNW 21:25:22 10° NE
ERS-1 Rocket 4.3 21:21:28 13° ESE 21:24:36 23° ENE 21:28:29 10° NNE
Resurs 01 Rocket 2.5 21:21:29 10° S 21:25:46 49° W 21:30:04 10° NNW
CENTAUR R/B 3.2 21:22:14 10° NNW 21:30:20 75° ENE 21:37:39 15° SE
Cosmos 1455 Rocket 3.5 21:26:03 10° NNW 21:30:21 62° W 21:34:36 10° S
Nadezhda 1 Rocket 4.1 21:28:12 10° SSE 21:34:21 57° E 21:40:36 10° NNE
Meteor 1-29 2.8 21:33:34 10° NNE 21:36:56 81° ESE 21:40:17 10° S
CZ-4B DEB 4.5 21:34:55 13° SSE 21:37:58 88° W 21:41:31 10° NNW
COSMOS 2406 4.0 21:34:14 10° SW 21:39:50 55° WNW 21:45:26 10° N
Cosmos 2082 Rocket 3.5 21:41:51 19° ESE 21:42:38 19° E 21:46:31 10° ENE
ASTRO E2 3.1 21:44:29 10° W 21:48:20 47° SSW 21:49:56 29° SE
CZ-4B DEB 2.5 21:48:37 29° SSE 21:49:58 90° SSW 21:52:58 10° NNW
Cosmos 1743 3.1 21:47:53 10° NNW 21:51:45 62° W 21:54:59 14° S
Cosmos 1238 Rocket 4.1 21:46:57 10° S 21:53:39 79° E 22:00:14 10° N
Cosmos 2154 Rocket 4.4 21:48:20 10° N 21:54:23 44° E 21:57:43 25° SE
Aureole 3 Rocket 4.2 21:48:59 10° SSW 21:55:49 65° W 22:00:40 10° N
ISS -0.6 21:54:50 10° WNW 21:57:04 17° NNW 21:59:18 10° N
ASTEX 1 3.4 21:55:07 23° SSE 21:58:11 67° E 22:03:02 10° N
H-2A R/B 3.6 21:59:49 16° E 22:00:53 17° ENE 22:04:03 10° NNE
OAO 2 Rocket 3.5 21:56:55 10° W 22:01:51 68° N 22:05:07 21° E
Helios 1A 3.8 21:58:49 14° S 22:02:19 49° W 22:06:24 10° NNW
SAR-Lupe-4 4.2 22:01:11 21° S 22:03:21 52° WSW 22:06:52 10° NNW
SL-27 R/B 4.3 22:01:38 10° SW 22:04:58 33° WNW 22:08:18 10° N
Cosmos 967 Rocket 4.3 21:59:05 10° SSW 22:05:20 79° ESE 22:11:37 10° NNE
Cosmos 1939 Rocket 3.5 22:04:17 19° S 22:06:51 49° W 22:10:36 10° NNW
YAOGAN 6 2.4 22:06:34 41° S 22:07:42 83° WSW 22:11:13 10° NNW
Cosmos 921 Rocket 4.4 22:08:35 10° NNE 22:12:13 24° ENE 22:12:33 24° ENE
Cosmos 1666 3.5 22:10:43 10° NNW 22:14:19 47° W 22:16:15 24° SSW
Okean 1-7 Rocket 4.1 22:11:05 12° SSW 22:15:10 60° W 22:19:37 10° N
Meteor 2-9 Rocket 4.2 22:10:17 10° N 22:15:50 82° W 22:19:13 25° S
Cosmos 1892 Rocket 3.7 22:15:22 45° SE 22:16:10 51° E 22:20:27 10° NNE
Cosmos 1833 Rocket 3.1 22:19:03 38° ESE 22:19:46 39° ESE 22:24:58 10° NE
DNEPR-1 R/B 3.9 22:16:58 10° NW 22:21:17 64° WSW 22:22:55 38° S
NOSS 8 (E) 4.4 22:19:23 20° SW 22:21:38 80° WNW 22:25:10 10° NNE
CZ-3B Rocket 3.8 22:17:41 10° SW 22:39:10 - ESE 22:21:32 27° SSE
Envisat 4.5 22:17:54 10° SSW 22:22:26 33° W 22:27:00 10° NW
Intercosmos 24 3.4 22:18:57 10° N 22:22:34 84° E 22:22:55 71° SSE
Cosmos 2056 Rocket 3.7 22:18:08 10° N 22:23:10 51° ENE 22:24:17 43° ESE
Cosmos 1437 Rocket 2.6 22:21:19 10° N 22:25:09 66° E 22:25:17 65° E
MetOp-A 4.1 22:23:25 41° SSE 22:25:19 72° ENE 22:30:39 10° N
Cosmos 2341 Rocket 4.1 22:20:58 10° N 22:27:14 60° E 22:29:27 40° SE
Cosmos 1606 Rocket 3.3 22:28:34 10° N 22:32:53 75° E 22:33:15 69° SE
PSLV R/B 4.4 22:30:23 10° NW 22:32:59 36° N 22:32:59 36° N
Cosmos 1066 Rocket 4.4 22:34:16 45° ESE 22:34:42 46° E 22:39:59 10° NNE
Cosmos 405 4.3 22:36:41 10° NNW 22:39:56 34° W 22:40:27 32° WSW
Cosmos 1515 3.9 22:40:58 65° W 22:41:07 66° W 22:44:54 10° N
Cosmos 1726 Rocket 3.3 22:38:18 10° N 22:42:37 80° E 22:42:37 80° E
COSMOS 2487 3.1 22:43:44 54° NNW 22:43:44 54° NNW 22:46:39 10° N
CZ-3A R/B 3.5 22:44:07 10° WSW 22:47:13 18° WNW 22:48:50 10° N
SPOT 1/Viking Rocket 3.5 22:51:40 64° E 22:52:02 66° ENE 22:57:09 10° N
YAOGAN 11 4.1 22:52:10 70° WSW 22:52:15 70° WSW 22:56:34 10° NNW
Cosmos 2181 Rocket 4.1 22:49:25 33° SSW 22:52:29 78° W 22:58:49 10° N
Cosmos 1452 Rocket 4.2 22:50:12 10° N 22:55:04 40° ENE 22:55:04 40° ENE
Cosmos 1980 Rocket 3.9 22:52:06 10° NNE 22:55:54 18° ENE 22:56:23 18° ENE
Cosmos 2058 Rocket 3.1 22:52:48 10° N 22:56:51 73° N 22:56:51 73° N
ARGOS 3.2 22:58:32 58° SSW 22:59:30 72° WSW 23:04:56 10° NNW
Tiangong 2 4.1 22:58:29 10° NNW 23:00:09 13° N 23:00:58 12° NNE
ERS-1 Rocket 4.3 23:01:27 26° SW 23:03:09 32° W 23:07:37 10° NW
Cosmos 1295 Rocket 4.5 22:58:52 10° N 23:05:05 80° W 23:06:29 56° SSW
Terra 2.8 23:07:56 37° NE 23:07:56 37° NE 23:11:32 10° N
SPOT 5 3.2 23:09:29 49° W 23:09:29 49° W 23:13:27 10° NNW
H-2A R/B 3.3 23:15:12 36° NNE 23:15:12 36° NNE 23:18:19 10° N
Cosmos 468 4.5 23:17:25 79° NNW 23:17:25 79° NNW 23:22:26 10° NNE
Cosmos 864 Rocket 4.4 23:14:21 10° N 23:20:37 69° E 23:20:40 68° E
Meteor 2-21 4.3 23:18:51 10° N 23:24:52 80° ENE 23:24:52 80° ENE
Cosmos 2082 Rocket 3.1 23:23:35 27° WSW 23:26:16 46° WNW 23:31:43 10° N
Meteor 2-21 Rocket 4.4 23:22:56 10° N 23:28:37 67° ENE 23:28:37 67° ENE
Cosmos 2278 4.0 23:25:49 10° NNW 23:31:15 58° W 23:31:15 58° W
SL-19 R/B 4.3 23:28:44 10° NNE 23:33:15 65° N 23:33:15 65° N
Meteor 1-22 Rocket 4.4 23:30:09 10° N 23:34:39 64° N 23:34:39 64° N
SL-8 Rocket 4.3 23:31:41 10° NNW 23:37:48 57° W 23:38:28 54° WSW
H-2A R/B 2.9 23:40:27 41° W 23:40:27 41° W 23:44:39 10° NNW
Cosmos 2366 rocket 4.0 23:37:30 10° N 23:43:33 71° W 23:43:33 71° W
Cosmos 1697 Rocket 3.1 23:46:21 10° NNW 23:50:57 60° NNW 23:50:57 60° NNW
